CW9825 Weather Reports


Display with metric or nautical units.
time (UTC)temp
F
wind
direction
speed
MPH
gust
MPH
rain 1hr
in
rain 24hr
in
rain mn
in
humidity
%
barometer
mb
20191211171024 -4 277 3.0 7.0 0.00 0.00 0.00 76 1029.7
20191211170535 -4 244 3.0 7.0 0.00 0.00 0.00 76 1029.7
20191211170046 -4 259 1.0 4.0 0.00 0.00 0.00 77 1029.5
20191211165519 -5 259 2.0 4.0 0.00 0.00 0.00 77 1029.4
20191211165017 -5 259 1.0 4.0 0.00 0.00 0.00 77 1029.1
20191211164617 -5 259 1.0 3.0 0.00 0.00 0.00 77 1029.2
20191211164021 -6 259 0.0 4.0 0.00 0.00 0.00 77 1029.1
20191211163513 -6 259 1.0 4.0 0.00 0.00 0.00 78 1029.2
20191211163054 -6 260 2.0 4.0 0.00 0.00 0.00 78 1029.4
20191211162510 -6 260 2.0 5.0 0.00 0.00 0.00 78 1029.4
20191211162008 -6 252 2.0 5.0 0.00 0.00 0.00 78 1029.4
20191211161511 -7 263 2.0 5.0 0.00 0.00 0.00 79 1029.4
20191211161005 -7 242 2.0 5.0 0.00 0.00 0.00 79 1029.3
20191211160510 -7 234 2.0 5.0 0.00 0.00 0.00 79 1029.3
20191211160003 -8 227 2.0 3.0 0.00 0.00 0.00 80 1029.1
20191211155501 -8 192 1.0 3.0 0.00 0.00 0.00 80 1028.9
20191211155100 -9 192 1.0 3.0 0.00 0.00 0.00 80 1028.6
20191211154652 -9 227 2.0 3.0 0.00 0.00 0.00 80 1028.4
20191211154104 -9 227 1.0 3.0 0.00 0.00 0.00 80 1028.5
20191211153555 -9 227 1.0 3.0 0.00 0.00 0.00 80 1028.6
20191211153220 -9 227 1.0 4.0 0.00 0.00 0.00 80 1028.6
20191211152552 -9 227 2.0 4.0 0.00 0.00 0.00 81 1028.8
20191211152051 -9 234 1.0 4.0 0.00 0.00 0.00 81 1028.8
20191211151647 -9 234 1.0 4.0 0.00 0.00 0.00 81 1028.8
20191211151047 -10 231 2.0 4.0 0.00 0.00 0.00 82 1028.6
20191211150546 -10 261 3.0 4.0 0.00 0.00 0.00 82 1028.7
20191211150121 -10 261 1.0 3.0 0.00 0.00 0.00 82 1028.5
20191211145544 -10 261 1.0 2.0 0.00 0.00 0.00 83 1028.5
20191211145042 -11 261 0.0 3.0 0.00 0.00 0.00 83 1028.4
20191211144724 -11 261 1.0 3.0 0.00 0.00 0.00 83 1028.5
20191211144042 -11 261 0.0 2.0 0.00 0.00 0.00 83 1028.5
20191211143549 -12 261 0.0 2.0 0.00 0.00 0.00 83 1028.4
20191211143200 -12 261 0.0 1.0 0.00 0.00 0.00 83 1028.5
20191211142534 -12 261 0.0 2.0 0.00 0.00 0.00 84 1028.5
20191211142037 -12 261 0.0 2.0 0.00 0.00 0.00 83 1028.5
20191211141643 -12 261 1.0 2.0 0.00 0.00 0.00 83 1028.4
20191211141030 -11 261 0.0 2.0 0.00 0.00 0.00 84 1028.3
20191211140529 -11 261 0.0 2.0 0.00 0.00 0.00 83 1028.3
20191211140103 -11 261 0.0 3.0 0.00 0.00 0.00 83 1028.1
20191211135525 -11 261 0.0 3.0 0.00 0.00 0.00 82 1028.2
20191211135032 -11 261 1.0 4.0 0.00 0.00 0.00 82 1028.2
20191211134621 -11 262 1.0 4.0 0.00 0.00 0.00 82 1028.1
20191211134044 -11 257 1.0 4.0 0.00 0.00 0.00 82 1028.2
20191211133526 -11 272 1.0 6.0 0.00 0.00 0.00 82 1028.2
20191211133051 -11 270 2.0 8.0 0.00 0.00 0.00 82 1028.0
20191211132522 -11 269 2.0 8.0 0.00 0.00 0.00 82 1028.0
20191211132022 -10 275 2.0 7.0 0.00 0.00 0.00 82 1028.0
20191211131601 -10 274 4.0 7.0 0.00 0.00 0.00 83 1027.9
20191211131017 -10 253 2.0 8.0 0.00 0.00 0.00 82 1028.0
20191211130510 -10 252 3.0 8.0 0.00 0.00 0.00 82 1028.0
20191211130027 -10 273 4.0 7.0 0.00 0.00 0.00 82 1027.9
20191211125512 -10 267 4.0 7.0 0.00 0.00 0.00 82 1027.9
20191211125007 -10 269 2.0 8.0 0.00 0.00 0.00 82 1027.9
20191211124522 -10 263 3.0 8.0 0.00 0.00 0.00 82 1027.9
20191211123502 -10 250 3.0 8.0 0.00 0.00 0.00 82 1028.1
20191211123313 -10 252 3.0 8.0 0.00 0.00 0.00 81 1027.9
20191211122601 -10 256 3.0 7.0 0.00 0.00 0.00 81 1027.9
20191211122102 -9 267 4.0 8.0 0.00 0.00 0.00 81 1027.9
20191211121753 -9 265 4.0 8.0 0.00 0.00 0.00 81 1027.7
20191211121054 -9 262 4.0 8.0 0.00 0.00 0.00 81 1027.7
20191211120554 -9 263 4.0 9.0 0.00 0.00 0.00 81 1027.7
20191211120152 -9 257 4.0 9.0 0.00 0.00 0.00 81 1027.6
20191211115601 -9 266 4.0 8.0 0.00 0.00 0.00 81 1027.5
20191211115058 -9 263 3.0 9.0 0.00 0.00 0.00 81 1027.4
20191211114721 -9 277 4.0 9.0 0.00 0.00 0.00 81 1027.3
20191211114046 -9 259 3.0 7.0 0.00 0.00 0.00 82 1027.3
20191211113544 -10 256 3.0 6.0 0.00 0.00 0.00 82 1027.3
20191211113153 -10 295 1.0 5.0 0.00 0.00 0.00 81 1027.2
20191211112547 -10 295 2.0 5.0 0.00 0.00 0.00 81 1027.1
20191211112040 -10 295 2.0 4.0 0.00 0.00 0.00 81 1027.1
20191211111618 -10 295 1.0 7.0 0.00 0.00 0.00 81 1027.1
20191211111043 -10 290 3.0 7.0 0.00 0.00 0.00 81 1027.1
20191211110534 -10 300 2.0 5.0 0.00 0.00 0.00 81 1027.0
20191211110226 -10 294 2.0 5.0 0.00 0.00 0.00 82 1026.9
20191211105532 -10 288 3.0 7.0 0.00 0.00 0.00 81 1026.9
20191211105037 -10 320 3.0 7.0 0.00 0.00 0.00 82 1026.9
20191211104625 -11 281 3.0 7.0 0.00 0.00 0.00 82 1026.8
20191211104027 -10 277 3.0 7.0 0.00 0.00 0.00 81 1026.9
20191211103526 -10 286 4.0 7.0 0.00 0.00 0.00 81 1026.7
20191211103205 -11 287 3.0 8.0 0.00 0.00 0.00 82 1026.4
20191211102527 -10 308 2.0 8.0 0.00 0.00 0.00 81 1026.4
20191211102038 -10 275 3.0 8.0 0.00 0.00 0.00 81 1026.5
20191211101619 -10 284 4.0 8.0 0.00 0.00 0.00 81 1026.4
20191211101051 -10 281 2.0 6.0 0.00 0.00 0.00 81 1026.3
20191211100553 -10 304 2.0 5.0 0.00 0.00 0.00 81 1026.3
20191211100024 -10 268 3.0 8.0 0.00 0.00 0.00 81 1026.2
20191211095514 -10 279 4.0 8.0 0.00 0.00 0.00 81 1026.1
20191211095013 -10 294 3.0 8.0 0.00 0.00 0.00 81 1026.0
20191211094600 -10 291 3.0 8.0 0.00 0.00 0.00 81 1025.9
20191211094024 -10 307 3.0 9.0 0.00 0.00 0.00 81 1026.0
20191211093507 -9 304 3.0 9.0 0.00 0.00 0.00 81 1026.0
20191211093031 -9 246 4.0 8.0 0.00 0.00 0.00 80 1026.0
20191211092514 -9 288 3.0 8.0 0.00 0.00 0.00 81 1025.9
20191211091513 -9 281 3.0 9.0 0.00 0.00 0.00 81 1025.8
20191211091100 -9 316 3.0 10.0 0.00 0.00 0.00 81 1025.8
20191211090606 -9 298 3.0 10.0 0.00 0.00 0.00 82 1025.8
20191211090328 -9 297 4.0 9.0 0.00 0.00 0.00 81 1025.7
20191211085605 -9 288 5.0 9.0 0.00 0.00 0.00 81 1025.8
20191211085102 -9 307 3.0 9.0 0.00 0.00 0.00 81 1025.8
20191211084823 -9 311 4.0 9.0 0.00 0.00 0.00 82 1025.8
20191211084141 -9 294 4.0 9.0 0.00 0.00 0.00 81 1025.8
20191211083609 -9 281 4.0 10.0 0.00 0.00 0.00 81 1025.7
20191211083136 -9 286 5.0 9.0 0.00 0.00 0.00 81 1025.5
20191211082549 -8 273 4.0 10.0 0.00 0.00 0.00 80 1025.3
20191211082056 -8 292 5.0 10.0 0.00 0.00 0.00 80 1025.3
20191211081659 -8 318 5.0 10.0 0.00 0.00 0.00 81 1025.1
20191211081043 -7 292 5.0 10.0 0.00 0.00 0.00 81 1025.1
20191211080555 -7 304 3.0 10.0 0.00 0.00 0.00 80 1025.0
20191211080433 -7 294 5.0 9.0 0.00 0.00 0.00 81 1025.0
20191211075537 -7 304 4.0 8.0 0.00 0.00 0.00 81 1024.9
20191211075117 -7 296 3.0 10.0 0.00 0.00 0.00 81 1024.8
20191211074618 -7 298 4.0 11.0 0.00 0.00 0.00 81 1024.8
20191211074035 -7 312 5.0 11.0 0.00 0.00 0.00 81 1024.7
20191211073537 -7 318 3.0 11.0 0.00 0.00 0.00 81 1024.7
20191211073233 -7 289 5.0 12.0 0.00 0.00 0.00 81 1024.5
20191211072529 -7 287 6.0 12.0 0.00 0.00 0.00 81 1024.5
20191211072027 -7 296 4.0 11.0 0.00 0.00 0.00 81 1024.4
20191211071557 -7 312 5.0 11.0 0.00 0.00 0.00 81 1024.3
20191211071042 -7 303 3.0 9.0 0.00 0.00 0.00 82 1024.2
20191211070532 -7 300 4.0 9.0 0.00 0.00 0.00 81 1024.2
20191211070035 -7 288 4.0 10.0 0.00 0.00 0.00 81 1024.2
20191211065523 -7 291 5.0 11.0 0.00 0.00 0.00 81 1024.1
20191211065246 -7 301 5.0 11.0 0.00 0.00 0.00 81 1024.1
20191211064640 -7 294 5.0 11.0 0.00 0.00 0.00 82 1024.0
20191211064016 -7 318 5.0 11.0 0.00 0.00 0.00 81 1023.8
20191211063515 -7 327 5.0 12.0 0.00 0.00 0.00 81 1023.8
20191211063039 -7 277 4.0 12.0 0.00 0.00 0.00 81 1023.7
20191211062510 -7 300 6.0 12.0 0.00 0.00 0.00 82 1023.6
20191211062009 -7 309 6.0 10.0 0.00 0.00 0.00 82 1023.6
20191211061523 -7 285 4.0 9.0 0.00 0.00 0.00 81 1023.6
20191211061007 -8 290 4.0 10.0 0.00 0.00 0.00 81 1023.5
20191211060505 -8 310 4.0 11.0 0.00 0.00 0.00 81 1023.3
20191211051909 -7 300 4.0 11.0 0.00 0.00 0.00 80 1022.7
20191211051048 -7 321 7.0 11.0 0.00 0.00 0.00 80 1022.6
20191211050605 -7 306 6.0 10.0 0.00 0.00 0.00 80 1022.4
20191211050151 -6 282 5.0 10.0 0.00 0.00 0.00 80 1022.3
20191211045605 -7 259 6.0 10.0 0.00 0.00 0.00 80 1022.3
20191211045052 -6 275 4.0 10.0 0.00 0.00 0.00 80 1022.1
20191211044734 -6 254 4.0 12.0 0.00 0.00 0.00 80 1021.9
20191211044137 -6 284 5.0 12.0 0.00 0.00 0.00 80 1021.8
20191211043540 -6 302 6.0 15.0 0.00 0.00 0.00 79 1021.7
20191211043229 -6 294 8.0 15.0 0.00 0.00 0.00 79 1021.7
20191211042601 -6 296 7.0 14.0 0.00 0.00 0.00 79 1021.5
20191211042033 -5 308 7.0 13.0 0.00 0.00 0.00 79 1021.5
20191211041637 -5 291 8.0 15.0 0.00 0.00 0.00 79 1021.5
20191211041030 -5 292 9.0 15.0 0.00 0.00 0.00 79 1021.4
20191211040537 -5 257 9.0 14.0 0.00 0.00 0.00 79 1021.3
20191211040208 -5 313 6.0 12.0 0.00 0.00 0.00 79 1021.1
20191211035526 -5 261 7.0 12.0 0.00 0.00 0.00 79 1021.1
20191211035029 -5 282 6.0 13.0 0.00 0.00 0.00 79 1021.2
20191211034654 -5 286 7.0 14.0 0.00 0.00 0.00 79 1021.0
20191211034037 -4 294 8.0 15.0 0.00 0.00 0.00 78 1021.1
20191211033527 -5 238 5.0 15.0 0.00 0.00 0.00 79 1021.0
20191211033110 -5 287 5.0 11.0 0.00 0.00 0.00 79 1021.0
20191211032528 -5 274 6.0 11.0 0.00 0.00 0.00 79 1020.9
20191211032014 -5 269 6.0 12.0 0.00 0.00 0.00 79 1020.9
20191211031538 -4 286 6.0 12.0 0.00 0.00 0.00 79 1021.0
20191211031017 -5 272 6.0 12.0 0.00 0.00 0.00 79 1020.9
20191211030519 -5 288 6.0 12.0 0.00 0.00 0.00 79 1020.9
20191211030018 -5 261 7.0 13.0 0.00 0.00 0.00 79 1020.8
20191211025507 -4 259 6.0 14.0 0.00 0.00 0.00 79 1020.9
20191211025010 -4 275 7.0 14.0 0.00 0.00 0.00 79 1020.8
20191211024507 -4 240 7.0 13.0 0.00 0.00 0.00 79 1020.8
20191211024003 -4 252 6.0 14.0 0.00 0.00 0.00 79 1020.9
20191211023504 -4 259 8.0 15.0 0.00 0.00 0.00 80 1020.8
20191211023330 -4 289 6.0 15.0 0.00 0.00 0.00 80 1020.8
20191211022611 -5 263 4.0 10.0 0.00 0.00 0.00 81 1020.8
20191211022057 -5 237 3.0 8.0 0.00 0.00 0.00 81 1020.8
20191211021819 -5 236 3.0 10.0 0.00 0.00 0.00 81 1020.8
20191211021054 -5 244 4.0 10.0 0.00 0.00 0.00 81 1020.8
20191211020601 -6 261 4.0 10.0 0.00 0.00 0.00 81 1020.7
20191211020234 -6 246 3.0 10.0 0.00 0.00 0.00 81 1020.6
20191211015550 -6 240 2.0 10.0 0.00 0.00 0.00 81 1020.7
20191211015111 -6 254 4.0 10.0 0.00 0.00 0.00 81 1020.8
20191211014640 -6 257 3.0 9.0 0.00 0.00 0.00 81 1020.7
20191211014059 -6 242 2.0 7.0 0.00 0.00 0.00 81 1020.8
20191211013549 -5 256 4.0 10.0 0.00 0.00 0.00 80 1020.7
20191211013218 -5 229 4.0 10.0 0.00 0.00 0.00 80 1020.7
20191211012552 -5 248 3.0 10.0 0.00 0.00 0.00 80 1020.7
20191211012114 -5 243 3.0 9.0 0.00 0.00 0.00 80 1020.6
20191211011709 -5 254 3.0 9.0 0.00 0.00 0.00 80 1020.6
20191211011038 -5 248 3.0 7.0 0.00 0.00 0.00 80 1020.7
20191211010542 -6 242 2.0 5.0 0.00 0.00 0.00 81 1020.8
20191211010148 -6 244 1.0 5.0 0.00 0.00 0.00 80 1020.9
20191211005541 -6 229 2.0 5.0 0.00 0.00 0.00 81 1020.9
20191211005036 -6 218 1.0 3.0 0.00 0.00 0.00 80 1020.8
20191211004559 -6 218 1.0 4.0 0.00 0.00 0.00 80 1020.8
20191211004033 -6 218 1.0 4.0 0.00 0.00 0.00 79 1020.8
20191211003526 -6 218 1.0 5.0 0.00 0.00 0.00 79 1020.8
20191211003109 -6 219 1.0 5.0 0.00 0.00 0.00 79 1020.7
20191211002523 -6 214 1.0 4.0 0.00 0.00 0.00 79 1020.7
20191211002023 -6 214 1.0 4.0 0.00 0.00 0.00 79 1020.7
20191211001535 -6 214 1.0 4.0 0.00 0.00 0.00 78 1020.7
20191211001021 -6 173 1.0 6.0 0.00 0.00 0.00 79 1020.7
20191211000539 -6 171 2.0 6.0 0.00 0.00 0.00 79 1020.7
20191211000034 -6 215 1.0 5.0 0.00 0.00 0.00 78 1020.8
20191210235517 -6 217 2.0 5.0 0.00 0.00 0.00 78 1021.0
20191210235015 -6 203 2.0 5.0 0.00 0.00 0.00 78 1021.0
20191210234624 -6 202 1.0 7.0 0.00 0.00 0.00 78 1020.9
20191210234011 -6 206 3.0 7.0 0.00 0.00 0.00 78 1020.9
20191210233510 -6 227 2.0 5.0 0.00 0.00 0.00 78 1020.9
20191210233023 -6 228 2.0 5.0 0.00 0.00 0.00 78 1021.0
20191210232507 -6 211 2.0 5.0 0.00 0.00 0.00 78 1021.1
20191210232006 -6 212 1.0 4.0 0.00 0.00 0.00 77 1021.0
20191210231534 -6 212 1.0 4.0 0.00 0.00 0.00 77 1021.0
20191210231003 -5 220 2.0 5.0 0.00 0.00 0.00 77 1021.0
20191210230502 -5 222 2.0 5.0 0.00 0.00 0.00 76 1021.1
20191210230243 -5 205 2.0 5.0 0.00 0.00 0.00 76 1021.2
20191210225605 -5 201 2.0 5.0 0.00 0.00 0.00 76 1021.2
20191210225121 -5 187 2.0 7.0 0.00 0.00 0.00 76 1021.2
20191210224649 -5 186 3.0 7.0 0.00 0.00 0.00 76 1021.3
20191210224104 -4 202 2.0 5.0 0.00 0.00 0.00 76 1021.5
20191210223607 -4 207 2.0 9.0 0.00 0.00 0.00 75 1021.5
20191210223302 -4 229 2.0 9.0 0.00 0.00 0.00 75 1021.6
20191210222600 -4 228 1.0 7.0 0.00 0.00 0.00 75 1021.5
20191210222051 -4 242 2.0 8.0 0.00 0.00 0.00 74 1021.4
20191210221652 -4 228 2.0 8.0 0.00 0.00 0.00 74 1021.5
20191210221104 -4 211 3.0 6.0 0.00 0.00 0.00 74 1021.5
20191210220546 -4 196 3.0 7.0 0.00 0.00 0.00 74 1021.4
20191210220319 -4 201 2.0 8.0 0.00 0.00 0.00 74 1021.5
20191210215542 -4 201 2.0 10.0 0.00 0.00 0.00 74 1021.6
20191210215039 -4 186 4.0 8.0 0.00 0.00 0.00 73 1021.5
20191210214620 -4 240 2.0 6.0 0.00 0.00 0.00 73 1021.5
20191210214036 -4 197 2.0 7.0 0.00 0.00 0.00 73 1021.6
20191210213535 -4 205 4.0 7.0 0.00 0.00 0.00 72 1021.5
20191210213233 -4 236 2.0 7.0 0.00 0.00 0.00 73 1021.6
20191210212600 -4 222 2.0 6.0 0.00 0.00 0.00 73 1021.7
20191210212031 -4 236 2.0 8.0 0.00 0.00 0.00 73 1021.8
20191210211643 -4 225 3.0 10.0 0.00 0.00 0.00 72 1022.0
20191210211028 -4 246 4.0 10.0 0.00 0.00 0.00 72 1022.2
20191210210544 -4 240 4.0 9.0 0.00 0.00 0.00 72 1022.2
20191210210116 -4 212 4.0 7.0 0.00 0.00 0.00 72 1022.4
20191210205533 -3 225 3.0 12.0 0.00 0.00 0.00 72 1022.5
20191210205021 -3 265 5.0 12.0 0.00 0.00 0.00 72 1022.5
20191210204623 -3 253 5.0 11.0 0.00 0.00 0.00 72 1022.6
20191210204043 -3 236 4.0 11.0 0.00 0.00 0.00 72 1022.5
20191210203517 -4 229 4.0 11.0 0.00 0.00 0.00 72 1022.5
20191210203033 -4 244 3.0 9.0 0.00 0.00 0.00 72 1022.6
20191210202514 -4 248 4.0 10.0 0.00 0.00 0.00 71 1022.6
20191210202018 -3 254 5.0 10.0 0.00 0.00 0.00 71 1022.6
20191210201515 -4 243 5.0 10.0 0.00 0.00 0.00 71 1022.6
20191210201013 -4 240 4.0 12.0 0.00 0.00 0.00 71 1022.6
20191210200510 -4 254 6.0 12.0 0.00 0.00 0.00 71 1022.7
20191210200058 -3 252 4.0 9.0 0.00 0.00 0.00 71 1022.8
20191210195508 -4 238 3.0 11.0 0.00 0.00 0.00 71 1022.9
20191210195005 -4 241 5.0 11.0 0.00 0.00 0.00 71 1023.1
20191210194529 -3 210 2.0 9.0 0.00 0.00 0.00 71 1023.1
20191210194108 -4 279 5.0 10.0 0.00 0.00 0.00 71 1023.1
20191210193559 -4 258 5.0 11.0 0.00 0.00 0.00 71 1023.1
20191210193217 -4 251 6.0 11.0 0.00 0.00 0.00 70 1023.2
20191210192603 -4 232 3.0 9.0 0.00 0.00 0.00 70 1023.3
20191210192054 -4 263 4.0 11.0 0.00 0.00 0.00 70 1023.3
20191210191756 -4 267 5.0 11.0 0.00 0.00 0.00 70 1023.4
20191210191050 -4 254 5.0 10.0 0.00 0.00 0.00 71 1023.4
20191210190614 -4 273 6.0 10.0 0.00 0.00 0.00 70 1023.5
20191210190550 -4 236 4.0 8.0 0.00 0.00 0.00 71 1023.4
20191210185551 -5 291 4.0 10.0 0.00 0.00 0.00 71 1023.5
20191210185103 -5 275 4.0 10.0 0.00 0.00 0.00 71 1023.5
20191210184906 -5 263 3.0 9.0 0.00 0.00 0.00 71 1023.5
20191210184042 -5 293 3.0 10.0 0.00 0.00 0.00 71 1023.5
20191210183552 -6 280 4.0 10.0 0.00 0.00 0.00 72 1023.6
20191210183216 -6 264 5.0 11.0 0.00 0.00 0.00 72 1023.6
20191210182537 -6 286 4.0 11.0 0.00 0.00 0.00 73 1023.7
20191210182038 -6 265 6.0 11.0 0.00 0.00 0.00 72 1023.9
20191210181703 -6 248 5.0 10.0 0.00 0.00 0.00 73 1023.7
20191210181033 -6 282 3.0 10.0 0.00 0.00 0.00 73 1023.8
20191210180546 -7 276 5.0 11.0 0.00 0.00 0.00 74 1023.9
20191210180251 -7 297 6.0 11.0 0.00 0.00 0.00 73 1023.9
20191210175533 -7 269 4.0 9.0 0.00 0.00 0.00 73 1023.9
20191210175033 -7 277 5.0 9.0 0.00 0.00 0.00 73 1024.0
20191210174633 -7 275 5.0 9.0 0.00 0.00 0.00 73 1024.0
20191210174024 -7 287 5.0 9.0 0.00 0.00 0.00 74 1024.0
20191210173527 -7 253 4.0 10.0 0.00 0.00 0.00 74 1024.0
20191210173148 -7 290 6.0 10.0 0.00 0.00 0.00 73 1024.1
20191210172522 -7 277 5.0 10.0 0.00 0.00 0.00 73 1024.1
20191210172018 -7 251 5.0 9.0 0.00 0.00 0.00 74 1024.2
20191210171529 -7 304 5.0 10.0 0.00 0.00 0.00 74 1024.3